[[{"header":{"parameterUnit":"m.s-1","parameterCategory":2,"la1":30.2991,"la2":30.254,"lo1":-89.0895,"lo2":-89.0444,"dy":0.0017,"dx":0.0017,"nx":28,"ny":28,"refTime":"2023-07-30T03:00:00:Z","depth":"0","parameterNumber":2,"parameterNumberName":"U-component_of_CURRENTS"},"data":[0,0,0,0,0,0,0,0,0,0,0,0,0,0,0,0,0,0,0,0,0,0,0,0,0,0,0,0,0,0,0,0,0,0,0,0,0,0,0,0,0,0,0,0,0,0,0,0,0,0,0,0,0,0,0,0,0,0,-0.2501,-0.2501,0,-0.2526,-0.2527,-0.2527,-0.2439,-0.2437,-0.2434,-0.2432,-0.2308,-0.2307,-0.2306,0,0,0,0,0,0,0,0,0,0,0,0,0,-0.243,-0.2431,-0.2501,-0.2501,-0.2502,-0.2526,-0.2527,-0.2527,-0.244,-0.2437,-0.2434,-0.2431,-0.2309,-0.2307,-0.2306,0,0,0,0,0,0,0,0,0,0,0,0,0,-0.2458,-0.2432,-0.2501,-0.2462,-0.2459,-0.2526,-0.2527,-0.2527,-0.2441,-0.2437,-0.2433,-0.2429,-0.2309,-0.2308,-0.2306,-0.2374,0,0,-0.2302,-0.2301,0,0,0,0,0,0,0,0,-0.2456,-0.246,-0.2467,-0.2465,-0.2462,-0.2477,-0.2456,-0.2469,-0.2442,-0.2447,-0.2432,-0.2428,-0.2354,-0.2349,-0.2363,-0.2368,-0.2362,-0.2302,-0.2301,-0.23,-0.23,0,0,0,0,0,0,0,-0.2454,-0.2459,-0.251,-0.2468,-0.2465,-0.2462,-0.2461,-0.2459,-0.2418,-0.2446,-0.244,-0.2446,-0.2351,-0.2365,-0.2359,-0.2361,-0.2302,-0.2301,-0.23,-0.2299,-0.2337,-0.2339,0,0,0,0,0,0,-0.2455,-0.2457,-0.2509,-0.2511,-0.2451,-0.2466,-0.2465,-0.2475,-0.2421,-0.2411,-0.2449,-0.2441,-0.2369,-0.2361,-0.2354,-0.2369,-0.23,-0.2299,-0.2298,-0.2335,-0.2337,-0.2339,0,0,0,0,0,0,-0.2454,-0.246,-0.2508,-0.2485,-0.2491,-0.2471,-0.2483,-0.2477,-0.247,-0.2425,-0.241,-0.2444,-0.2366,-0.2356,-0.234,-0.2365,-0.2298,-0.2297,-0.2333,-0.2336,-0.2338,-0.2439,0,0,0,0,0,0,-0.2452,-0.246,-0.2469,-0.2485,-0.2492,-0.2529,-0.2487,-0.2481,-0.2481,-0.2471,-0.2417,-0.2403,-0.2362,-0.2342,-0.2338,-0.2362,-0.2296,-0.2331,-0.2334,-0.2338,-0.2433,-0.2444,-0.2454,0,0,0,0,0,-0.2449,-0.2465,-0.2469,-0.2476,-0.2505,-0.253,-0.2533,-0.2506,-0.2484,-0.2485,-0.2453,-0.2403,-0.2361,-0.2343,-0.2338,-0.2362,-0.2329,-0.2333,-0.2337,-0.2428,-0.2442,-0.2454,0,0,0,0,0,0,-0.2444,-0.246,-0.2463,-0.2485,-0.2503,-0.2515,-0.2518,-0.2514,-0.2498,-0.248,-0.2431,-0.2417,-0.2415,-0.2383,-0.2364,-0.2384,-0.2336,-0.234,-0.2407,-0.242,-0.2431,-0.2417,-0.2295,0,0,0,0,0,-0.2454,-0.2462,-0.2486,-0.2506,-0.2514,-0.2524,-0.2533,-0.2521,-0.2513,-0.2502,-0.247,-0.2443,-0.244,-0.242,-0.2407,-0.2423,-0.2389,-0.2434,-0.2445,-0.2454,-0.2442,-0.2412,-0.2418,-0.2353,-0.2353,-0.2353,0,0,-0.2459,-0.247,-0.2475,-0.2505,-0.2516,-0.2537,-0.2517,-0.2531,-0.2547,-0.2494,-0.2494,-0.2481,-0.2455,-0.2467,-0.2463,-0.2433,-0.2467,-0.2459,-0.2467,-0.2449,-0.2417,-0.2423,-0.2428,-0.2356,-0.2355,-0.2355,0,0,-0.2467,-0.2485,-0.2489,-0.2509,-0.2529,-0.2544,-0.2549,-0.2565,-0.2563,-0.2579,-0.2552,-0.2561,-0.2535,-0.2538,-0.2534,-0.2602,-0.253,-0.2588,-0.2622,-0.2595,-0.26,-0.2603,-0.2615,-0.2618,-0.2585,-0.2586,-0.2586,0,-0.2469,-0.2478,-0.2498,-0.2512,-0.252,-0.2547,-0.2556,-0.2588,-0.2596,-0.2597,-0.2574,-0.2578,-0.2576,-0.26,-0.2629,-0.2627,-0.2592,-0.2576,-0.2607,-0.2609,-0.2611,-0.2621,-0.2624,-0.2591,-0.259,-0.259,-0.2589,0,-0.2477,-0.2486,-0.2494,-0.2517,-0.2541,-0.2552,-0.2597,-0.2618,-0.2623,-0.2639,-0.2655,-0.2666,-0.2654,-0.268,-0.2677,-0.27,-0.267,-0.2631,-0.2571,-0.2623,-0.2632,-0.2633,-0.2599,-0.2597,-0.2595,-0.2594,0,0,-0.2436,-0.2486,-0.248,-0.2479,-0.2533,-0.2542,-0.26,-0.2633,-0.264,-0.2675,-0.2673,-0.2735,-0.2729,-0.2727,-0.2736,-0.2733,-0.2768,-0.2685,-0.2681,-0.2691,-0.2714,-0.2419,-0.2391,-0.2706,-0.2705,-0.2705,-0.2732,0,-0.2416,-0.2427,-0.2469,-0.2477,-0.2474,-0.2531,-0.2568,-0.2613,-0.2645,-0.266,-0.2707,-0.2711,-0.2752,-0.2741,-0.2759,-0.2749,-0.2764,-0.2765,-0.2665,-0.2663,-0.2387,-0.2379,-0.2222,-0.2204,-0.2732,-0.2732,-0.2732,0,-0.2374,-0.2383,-0.239,-0.2414,-0.2419,-0.2447,-0.248,-0.2522,-0.2589,-0.2602,-0.2642,-0.2668,-0.2726,-0.2723,-0.2754,-0.2736,-0.2739,-0.2736,-0.2735,-0.241,-0.2364,-0.2228,-0.2185,-0.2234,-0.2732,-0.2732,-0.2732,0,-0.2279,-0.2308,-0.2303,-0.2317,-0.2374,-0.2387,-0.2421,-0.2488,-0.2505,-0.2564,-0.2565,-0.2629,-0.2647,-0.2657,-0.2692,-0.2708,-0.2679,-0.27,-0.2456,-0.244,-0.2258,-0.222,-0.223,-0.2704,-0.2704,-0.2704,-0.2704,0,-0.2214,-0.2197,-0.2253,-0.2252,-0.2226,-0.2301,-0.2293,-0.2345,-0.2399,-0.2412,-0.2521,-0.2531,-0.2617,-0.263,-0.266,-0.2527,-0.2658,-0.2439,-0.2396,-0.229,-0.2256,-0.2245,-0.2324,-0.2705,-0.2705,-0.2705,-0.2705,0,-0.2112,-0.2153,-0.2136,-0.2182,-0.2183,-0.2166,-0.2206,-0.2208,-0.2279,-0.2302,-0.2318,-0.2444,-0.2431,-0.2486,-0.2502,-0.2441,-0.2315,-0.2307,-0.2182,-0.2115,-0.1835,-0.1924,-0.1829,-0.1782,-0.2021,-0.2013,-0.2006,0,-0.2069,-0.205,-0.2067,-0.2052,-0.2073,-0.2059,-0.2053,-0.2121,-0.2144,-0.2241,-0.225,-0.2271,-0.2253,-0.2147,-0.202,-0.1929,-0.2072,-0.1736,-0.1709,-0.1752,-0.1829,-0.192,-0.1901,-0.1585,-0.1576,-0.1568,-0.1562,0,-0.1974,-0.1983,-0.1988,-0.1955,-0.194,-0.1907,-0.1925,-0.192,-0.2016,-0.2036,-0.2073,-0.206,-0.1922,-0.1693,-0.1509,-0.1479,-0.1659,-0.156,-0.1663,-0.149,-0.1541,-0.1497,-0.1697,-0.1494,-0.1501,-0.1506,-0.1509,-0.1512,-0.1902,-0.1879,-0.1888,-0.1846,-0.1825,-0.178,-0.1713,-0.1752,-0.174,-0.1736,-0.1833,-0.1691,-0.1459,-0.1122,-0.1107,-0.094,-0.11,-0.0937,-0.1059,-0.1162,-0.1028,-0.1031,-0.0705,-0.0707,-0.0709,-0.0711,-0.0713,0,-0.1794,-0.1792,-0.1773,-0.1725,-0.166,-0.1673,-0.1634,-0.1552,-0.1491,-0.1437,-0.1392,-0.1058,-0.0831,-0.0725,-0.0506,-0.0495,-0.0605,-0.0574,-0.0792,-0.0807,-0.0856,-0.074,-0.0332,-0.0332,-0.0332,-0.0332,-0.0332,-0.0332,-0.174,-0.1692,-0.1689,-0.1563,-0.1523,-0.1374,-0.1312,-0.1215,-0.1114,-0.0869,-0.0632,-0.0482,-0.0385,-0.0486,-0.0494,-0.0485,-0.0643,-0.054,-0.0684,-0.0862,-0.0912,-0.096,-0.087,-0.0496,-0.0496,-0.058,-0.0582,-0.0583]},{"header":{"parameterUnit":"m.s-1","parameterCategory":2,"la1":30.2991,"la2":30.254,"lo1":-89.0895,"lo2":-89.0444,"dy":0.0017,"dx":0.0017,"nx":28,"ny":28,"refTime":"2023-07-30T03:00:00:Z","depth":"0","parameterNumber":3,"parameterNumberName":"V-component_of_CURRENTS"},"data":[0,0,0,0,0,0,0,0,0,0,0,0,0,0,0,0,0,0,0,0,0,0,0,0,0,0,0,0,0,0,0,0,0,0,0,0,0,0,0,0,0,0,0,0,0,0,0,0,0,0,0,0,0,0,0,0,0,0,-0.079,-0.079,0,-0.0765,-0.0765,-0.0764,-0.0693,-0.0692,-0.069,-0.0689,-0.062,-0.0619,-0.0619,0,0,0,0,0,0,0,0,0,0,0,0,0,-0.0741,-0.0742,-0.079,-0.079,-0.079,-0.0765,-0.0765,-0.0764,-0.0693,-0.0691,-0.069,-0.0688,-0.062,-0.0619,-0.0619,0,0,0,0,0,0,0,0,0,0,0,0,0,-0.0743,-0.0743,-0.079,-0.0752,-0.0748,-0.0765,-0.0765,-0.0764,-0.0694,-0.0691,-0.0689,-0.0687,-0.062,-0.062,-0.0619,-0.066,0,0,-0.0617,-0.0617,0,0,0,0,0,0,0,0,-0.0743,-0.0745,-0.0758,-0.0754,-0.075,-0.073,-0.0722,-0.0727,-0.0694,-0.0714,-0.0689,-0.0686,-0.0655,-0.0651,-0.0651,-0.0657,-0.0654,-0.0617,-0.0617,-0.0616,-0.0616,0,0,0,0,0,0,0,-0.0743,-0.0746,-0.078,-0.0758,-0.0753,-0.0723,-0.0721,-0.0723,-0.0696,-0.0712,-0.0707,-0.0706,-0.0652,-0.0652,-0.0649,-0.0653,-0.0617,-0.0616,-0.0616,-0.0616,-0.0644,-0.0645,0,0,0,0,0,0,-0.0752,-0.0746,-0.0781,-0.0779,-0.0742,-0.0726,-0.0724,-0.0739,-0.0697,-0.0689,-0.0708,-0.0702,-0.0654,-0.065,-0.0646,-0.0678,-0.0616,-0.0616,-0.0615,-0.0643,-0.0644,-0.0646,0,0,0,0,0,0,-0.0752,-0.0756,-0.0782,-0.0761,-0.0762,-0.073,-0.0746,-0.0739,-0.0726,-0.0694,-0.0684,-0.07,-0.0652,-0.0647,-0.065,-0.0675,-0.0615,-0.0615,-0.0642,-0.0643,-0.0645,-0.0751,0,0,0,0,0,0,-0.0751,-0.0757,-0.0769,-0.0763,-0.0764,-0.0801,-0.0748,-0.0741,-0.073,-0.0722,-0.0685,-0.0677,-0.065,-0.0651,-0.0649,-0.0673,-0.0614,-0.064,-0.0642,-0.0644,-0.0746,-0.0756,-0.0765,0,0,0,0,0,-0.0749,-0.0781,-0.077,-0.0774,-0.0783,-0.0803,-0.0801,-0.0769,-0.0732,-0.0744,-0.0714,-0.0677,-0.0662,-0.0652,-0.0649,-0.0674,-0.0639,-0.0642,-0.0644,-0.0742,-0.0754,-0.0764,0,0,0,0,0,0,-0.0767,-0.0777,-0.0764,-0.0797,-0.0802,-0.079,-0.0798,-0.0773,-0.076,-0.0747,-0.0702,-0.0695,-0.07,-0.0677,-0.0667,-0.0686,-0.0641,-0.0643,-0.0716,-0.0727,-0.0737,-0.0775,-0.0614,0,0,0,0,0,-0.078,-0.0803,-0.0806,-0.0831,-0.0837,-0.0816,-0.0817,-0.08,-0.0788,-0.0778,-0.0752,-0.0725,-0.0715,-0.0711,-0.0697,-0.0722,-0.0693,-0.0731,-0.0741,-0.0749,-0.0777,-0.0793,-0.0807,-0.0654,-0.0654,-0.0654,0,0,-0.0793,-0.0801,-0.0814,-0.0836,-0.0833,-0.0875,-0.0811,-0.0824,-0.0858,-0.0776,-0.0805,-0.0758,-0.0726,-0.0745,-0.0746,-0.0727,-0.0762,-0.0752,-0.0759,-0.0784,-0.0797,-0.0812,-0.0826,-0.0656,-0.0655,-0.0655,0,0,-0.0845,-0.0842,-0.0883,-0.09,-0.091,-0.0909,-0.0915,-0.091,-0.0903,-0.0925,-0.0869,-0.0843,-0.0834,-0.0818,-0.0807,-0.0864,-0.0808,-0.0848,-0.0936,-0.0951,-0.0965,-0.0976,-0.0899,-0.0903,-0.0859,-0.0859,-0.0859,0,-0.0857,-0.0918,-0.0897,-0.0948,-0.0977,-0.0932,-0.0994,-0.0996,-0.0991,-0.0998,-0.0947,-0.0927,-0.0874,-0.0913,-0.0914,-0.0887,-0.0861,-0.0897,-0.0966,-0.0977,-0.0988,-0.0906,-0.0909,-0.0864,-0.0864,-0.0863,-0.0863,0,-0.0948,-0.0997,-0.1024,-0.108,-0.1107,-0.1151,-0.1159,-0.1173,-0.1144,-0.1133,-0.1145,-0.1083,-0.1069,-0.1039,-0.0988,-0.1037,-0.0978,-0.0972,-0.0943,-0.101,-0.0918,-0.0919,-0.0872,-0.087,-0.0869,-0.0867,0,0,-0.0927,-0.1071,-0.1064,-0.1139,-0.1184,-0.1222,-0.1281,-0.1324,-0.1357,-0.1328,-0.1367,-0.1318,-0.1258,-0.1243,-0.1177,-0.1176,-0.117,-0.111,-0.1108,-0.1042,-0.1148,-0.0911,-0.0889,-0.1192,-0.1194,-0.1196,-0.1032,0,-0.099,-0.1159,-0.1185,-0.1317,-0.1408,-0.1406,-0.1471,-0.1496,-0.1482,-0.1502,-0.1441,-0.1442,-0.135,-0.1329,-0.1321,-0.1214,-0.119,-0.1211,-0.1086,-0.1081,-0.0873,-0.089,-0.078,-0.0611,-0.1033,-0.1033,-0.1034,0,-0.1013,-0.1151,-0.133,-0.1483,-0.1512,-0.1576,-0.1659,-0.1709,-0.1717,-0.1697,-0.1688,-0.1626,-0.1598,-0.1512,-0.1408,-0.1431,-0.1303,-0.1214,-0.1207,-0.0963,-0.085,-0.0624,-0.0597,-0.0433,-0.1035,-0.1035,-0.1035,0,-0.1001,-0.1199,-0.1369,-0.1426,-0.1606,-0.1665,-0.1726,-0.1763,-0.179,-0.1818,-0.1808,-0.1791,-0.1738,-0.1657,-0.1409,-0.1439,-0.1255,-0.1275,-0.0943,-0.0921,-0.0789,-0.0752,-0.0604,-0.1222,-0.1222,-0.1223,-0.1223,0,-0.1018,-0.1126,-0.1393,-0.1479,-0.1643,-0.1734,-0.1828,-0.1872,-0.1911,-0.192,-0.1906,-0.1877,-0.1778,-0.1631,-0.1462,-0.1153,-0.129,-0.0952,-0.0881,-0.0809,-0.0777,-0.0596,-0.0573,-0.1216,-0.1218,-0.1219,-0.122,0,-0.0923,-0.111,-0.1314,-0.1572,-0.1639,-0.1746,-0.1866,-0.1915,-0.1966,-0.1975,-0.1984,-0.1931,-0.1735,-0.1548,-0.1343,-0.116,-0.0785,-0.0784,-0.0639,-0.0553,-0.0119,-0.0107,0.0097,0.0227,-0.0451,-0.0444,-0.0439,0,-0.0917,-0.1023,-0.1337,-0.1458,-0.1569,-0.173,-0.1802,-0.1911,-0.1943,-0.1966,-0.1954,-0.181,-0.1629,-0.1214,-0.0901,-0.0552,-0.0477,-0.0234,-0.0283,-0.006,0.0001,-0.0017,0.0072,-0.013,-0.0123,-0.0116,-0.0111,0,-0.0891,-0.0988,-0.1148,-0.1396,-0.1543,-0.1679,-0.1797,-0.1831,-0.1917,-0.1917,-0.1843,-0.1718,-0.1311,-0.0877,-0.0402,-0.0196,-0.009,-0.009,0.0044,0.0198,0.0272,0.0423,-0.0212,-0.0056,-0.0062,-0.0066,-0.0069,-0.0071,-0.084,-0.0921,-0.1124,-0.1319,-0.1477,-0.1586,-0.1617,-0.1703,-0.1724,-0.1674,-0.1667,-0.1431,-0.087,-0.0196,0.0037,0.0557,0.0395,0.0662,0.0645,0.0599,0.0754,0.032,0.0615,0.0614,0.0612,0.0611,0.061,0,-0.0826,-0.0884,-0.104,-0.1261,-0.1342,-0.1468,-0.1567,-0.1545,-0.1496,-0.1449,-0.1341,-0.082,-0.0188,0.0305,0.1021,0.125,0.122,0.1328,0.1251,0.1297,0.0841,0.0888,0.1372,0.1372,0.1372,0.1371,0.1371,0.1371,-0.0826,-0.0921,-0.0977,-0.109,-0.119,-0.1238,-0.1258,-0.123,-0.1179,-0.095,-0.0731,-0.0551,0.0118,0.1067,0.1706,0.1763,0.1862,0.185,0.1899,0.1508,0.144,0.1375,0.1427,0.2016,0.2017,0.2363,0.2366,0.2369]}],[{"header":{"parameterUnit":"m.s-1","parameterCategory":2,"la1":30.2991,"la2":30.254,"lo1":-89.0895,"lo2":-89.0444,"dy":0.0017,"dx":0.0017,"nx":28,"ny":28,"refTime":"2023-07-30T03:00:00:Z","depth":"2","parameterNumber":2,"parameterNumberName":"U-component_of_CURRENTS"},"data":[0,0,0,0,0,0,0,0,0,0,0,0,0,0,0,0,0,0,0,0,0,0,0,0,0,0,0,0,0,0,0,0,0,0,0,0,0,0,0,0,0,0,0,0,0,0,0,0,0,0,0,0,0,0,0,0,0,0,-0.2282,-0.2284,0,-0.2495,-0.2498,-0.25,-0.2605,-0.2604,-0.2604,-0.2603,-0.291,-0.2918,-0.2927,0,0,0,0,0,0,0,0,0,0,0,0,0,-0.215,-0.2151,-0.2282,-0.2285,-0.2287,-0.2494,-0.2498,-0.2501,-0.2605,-0.2604,-0.2604,-0.2603,-0.2907,-0.2917,-0.2927,0,0,0,0,0,0,0,0,0,0,0,0,0,-0.2273,-0.2152,-0.2282,-0.236,-0.2369,-0.2494,-0.2498,-0.2502,-0.2605,-0.2604,-0.2604,-0.2603,-0.2904,-0.2916,-0.2929,-0.3021,0,0,-0.2968,-0.2974,0,0,0,0,0,0,0,0,-0.2266,-0.2279,-0.2346,-0.2355,-0.2365,-0.2519,-0.2563,-0.2679,-0.2605,-0.252,-0.2603,-0.2603,-0.2785,-0.2808,-0.2854,-0.3035,-0.3048,-0.2969,-0.2977,-0.2982,-0.2986,0,0,0,0,0,0,0,-0.2257,-0.2271,-0.2371,-0.2349,-0.236,-0.2448,-0.2463,-0.2587,-0.2659,-0.2528,-0.2534,-0.2551,-0.2792,-0.2842,-0.2862,-0.3053,-0.2969,-0.298,-0.2988,-0.2993,-0.3264,-0.3263,0,0,0,0,0,0,-0.2213,-0.2262,-0.2364,-0.2377,-0.2308,-0.2449,-0.2467,-0.2474,-0.2656,-0.2681,-0.2551,-0.2555,-0.282,-0.2847,-0.2874,-0.2936,-0.2982,-0.2994,-0.3002,-0.3264,-0.3264,-0.3263,0,0,0,0,0,0,-0.2209,-0.222,-0.2356,-0.2322,-0.2344,-0.245,-0.2458,-0.2478,-0.2551,-0.2672,-0.27,-0.2605,-0.2821,-0.2856,-0.2983,-0.2951,-0.3,-0.3012,-0.3265,-0.3264,-0.3263,-0.3098,0,0,0,0,0,0,-0.2204,-0.2217,-0.2221,-0.2318,-0.2344,-0.245,-0.2459,-0.2483,-0.2559,-0.2566,-0.2728,-0.2754,-0.2823,-0.2963,-0.2996,-0.2969,-0.3022,-0.3266,-0.3265,-0.3264,-0.3104,-0.3092,-0.3081,0,0,0,0,0,-0.2199,-0.2219,-0.222,-0.2233,-0.2341,-0.2452,-0.2476,-0.2552,-0.2561,-0.2612,-0.2693,-0.275,-0.2978,-0.2975,-0.3013,-0.2989,-0.3266,-0.3265,-0.3264,-0.3109,-0.3094,-0.3081,0,0,0,0,0,0,-0.2181,-0.2233,-0.2237,-0.2274,-0.2357,-0.2468,-0.2515,-0.2566,-0.2673,-0.268,-0.278,-0.2814,-0.29,-0.2984,-0.2977,-0.3061,-0.3119,-0.3125,-0.2988,-0.2975,-0.2964,-0.2929,-0.3033,0,0,0,0,0,-0.2168,-0.2183,-0.2263,-0.2293,-0.2326,-0.242,-0.2476,-0.2535,-0.2632,-0.2679,-0.2783,-0.2871,-0.2924,-0.2982,-0.3072,-0.3155,-0.3198,-0.3153,-0.3141,-0.3131,-0.3127,-0.3153,-0.3142,-0.3259,-0.3259,-0.3259,0,0,-0.2169,-0.2197,-0.2209,-0.2288,-0.2348,-0.2392,-0.2455,-0.255,-0.2577,-0.2698,-0.2784,-0.286,-0.294,-0.2999,-0.3043,-0.3068,-0.3119,-0.3129,-0.3119,-0.3122,-0.315,-0.3138,-0.3128,-0.3259,-0.3259,-0.3259,0,0,-0.2176,-0.22,-0.2213,-0.2268,-0.2355,-0.2408,-0.2433,-0.256,-0.2605,-0.2702,-0.2749,-0.2796,-0.2954,-0.2959,-0.298,-0.2971,-0.3059,-0.3015,-0.2933,-0.2955,-0.2945,-0.2937,-0.2959,-0.2954,-0.3004,-0.3004,-0.3004,0,-0.2174,-0.2191,-0.2246,-0.227,-0.2308,-0.24,-0.2437,-0.2489,-0.2643,-0.2681,-0.2712,-0.2848,-0.2902,-0.2906,-0.2871,-0.2936,-0.299,-0.2969,-0.2936,-0.2929,-0.2923,-0.2949,-0.2945,-0.2996,-0.2997,-0.2998,-0.2998,0,-0.2185,-0.22,-0.222,-0.2246,-0.2301,-0.2366,-0.2423,-0.2492,-0.2548,-0.2604,-0.2672,-0.2734,-0.2811,-0.2803,-0.2827,-0.2807,-0.2871,-0.2915,-0.2959,-0.29,-0.2932,-0.2931,-0.2984,-0.2987,-0.2989,-0.2991,0,0,-0.2174,-0.2217,-0.2219,-0.2228,-0.2302,-0.2354,-0.2377,-0.2448,-0.2487,-0.2564,-0.262,-0.2607,-0.2667,-0.2692,-0.2729,-0.2716,-0.2674,-0.2792,-0.2797,-0.2792,-0.2748,-0.2503,-0.248,-0.2735,-0.2734,-0.2734,-0.2779,0,-0.217,-0.2192,-0.2219,-0.2243,-0.2268,-0.2333,-0.2354,-0.242,-0.2496,-0.2583,-0.2582,-0.2657,-0.2614,-0.2667,-0.2628,-0.2734,-0.2671,-0.2659,-0.2827,-0.2831,-0.2601,-0.2469,-0.2314,-0.2316,-0.2779,-0.2779,-0.2779,0,-0.2164,-0.2183,-0.2204,-0.2248,-0.2266,-0.2281,-0.2362,-0.2399,-0.2491,-0.2558,-0.2596,-0.2677,-0.2675,-0.2651,-0.2677,-0.2698,-0.2673,-0.2697,-0.2701,-0.2529,-0.2581,-0.2457,-0.2298,-0.2779,-0.2779,-0.2779,-0.2779,0,-0.213,-0.2169,-0.2181,-0.2196,-0.2258,-0.2273,-0.2303,-0.2392,-0.2451,-0.2556,-0.2658,-0.2682,-0.2731,-0.2731,-0.2713,-0.275,-0.2738,-0.2813,-0.2536,-0.2523,-0.2444,-0.2421,-0.2733,-0.2733,-0.2733,-0.2732,-0.2732,0,-0.2112,-0.2119,-0.2161,-0.2166,-0.2197,-0.2241,-0.2295,-0.2347,-0.2458,-0.2525,-0.2635,-0.2684,-0.2754,-0.2768,-0.2746,-0.2605,-0.2746,-0.2474,-0.2488,-0.2377,-0.2348,-0.2813,-0.2821,-0.2734,-0.2734,-0.2733,-0.2733,0,-0.2061,-0.2092,-0.2106,-0.2157,-0.2175,-0.2185,-0.2268,-0.2316,-0.2439,-0.2546,-0.2591,-0.2713,-0.2694,-0.2704,-0.2701,-0.2609,-0.2543,-0.2418,-0.2258,-0.2242,-0.233,-0.2331,-0.2209,-0.22,-0.2192,-0.2186,-0.2181,0,-0.2029,-0.2033,-0.2078,-0.2085,-0.2099,-0.2132,-0.2163,-0.2272,-0.234,-0.252,-0.2567,-0.2603,-0.2539,-0.2438,-0.2298,-0.2175,-0.2266,-0.1932,-0.1896,-0.2235,-0.2264,-0.2276,-0.2287,-0.1773,-0.1765,-0.1758,-0.1752,0,-0.1964,-0.1981,-0.1991,-0.2008,-0.2025,-0.2063,-0.2117,-0.2186,-0.2318,-0.2385,-0.242,-0.2386,-0.226,-0.2013,-0.1807,-0.1725,-0.1962,-0.1779,-0.2209,-0.1869,-0.1809,-0.1842,-0.187,-0.1692,-0.1698,-0.1703,-0.1706,-0.1708,-0.19,-0.1893,-0.1903,-0.1906,-0.194,-0.1972,-0.1967,-0.2035,-0.207,-0.2134,-0.2156,-0.1999,-0.1957,-0.1515,-0.1388,-0.129,-0.1435,-0.1409,-0.1439,-0.1473,-0.1353,-0.1275,-0.104,-0.1042,-0.1044,-0.1046,-0.1047,0,-0.1802,-0.18,-0.1799,-0.182,-0.1801,-0.1862,-0.1918,-0.1892,-0.1854,-0.1822,-0.1741,-0.1457,-0.122,-0.1167,-0.0912,-0.0839,-0.0938,-0.0802,-0.0971,-0.1027,-0.1078,-0.0947,-0.0523,-0.0522,-0.0521,-0.052,0,0,-0.1749,-0.1705,-0.1701,-0.1646,-0.1672,-0.1618,-0.161,-0.1561,-0.1498,-0.1355,-0.1191,-0.1185,-0.1129,-0.0852,-0.0768,-0.0602,-0.0826,-0.0559,-0.0976,-0.1233,-0.1283,-0.141,-0.1264,0,0,0,0,0]},{"header":{"parameterUnit":"m.s-1","parameterCategory":2,"la1":30.2991,"la2":30.254,"lo1":-89.0895,"lo2":-89.0444,"dy":0.0017,"dx":0.0017,"nx":28,"ny":28,"refTime":"2023-07-30T03:00:00:Z","depth":"2","parameterNumber":3,"parameterNumberName":"V-component_of_CURRENTS"},"data":[0,0,0,0,0,0,0,0,0,0,0,0,0,0,0,0,0,0,0,0,0,0,0,0,0,0,0,0,0,0,0,0,0,0,0,0,0,0,0,0,0,0,0,0,0,0,0,0,0,0,0,0,0,0,0,0,0,0,-0.0073,-0.0072,0,0.0027,0.0028,0.003,0.013,0.0131,0.0132,0.0133,0.0457,0.0464,0.0472,0,0,0,0,0,0,0,0,0,0,0,0,0,-0.0116,-0.0116,-0.0073,-0.0072,-0.0071,0.0027,0.0028,0.003,0.013,0.0131,0.0132,0.0133,0.0454,0.0463,0.0473,0,0,0,0,0,0,0,0,0,0,0,0,0,-0.0061,-0.0116,-0.0073,-0.0013,-0.0007,0.0026,0.0029,0.0031,0.0129,0.0131,0.0132,0.0133,0.0451,0.0462,0.0474,0.0517,0,0,0.0509,0.0514,0,0,0,0,0,0,0,0,-0.0064,-0.0059,-0.0022,-0.0017,-0.001,0.0064,0.0132,0.0203,0.0129,0.0082,0.0133,0.0134,0.0342,0.0363,0.0381,0.0532,0.0546,0.051,0.0517,0.0522,0.0526,0,0,0,0,0,0,0,-0.0068,-0.0062,-0.0029,-0.0022,-0.0014,0.003,0.0039,0.0145,0.0211,0.0086,0.0093,0.0097,0.0348,0.037,0.039,0.0551,0.051,0.052,0.0528,0.0532,0.0916,0.0919,0,0,0,0,0,0,-0.0094,-0.0067,-0.0032,-0.0026,-0.0039,0.0029,0.0039,0.0042,0.0205,0.0228,0.0095,0.0101,0.0349,0.0376,0.0402,0.0484,0.0522,0.0533,0.054,0.0913,0.0917,0.092,0,0,0,0,0,0,-0.0095,-0.0092,-0.0036,-0.0047,-0.0038,0.0027,0.003,0.0043,0.0072,0.0208,0.0237,0.011,0.0351,0.0386,0.0499,0.0497,0.0538,0.0549,0.0909,0.0914,0.0918,0.0636,0,0,0,0,0,0,-0.0097,-0.0093,-0.0098,-0.0049,-0.0038,-0.0017,0.0028,0.0044,0.0069,0.0078,0.0231,0.0261,0.0355,0.0481,0.0511,0.0514,0.0558,0.0905,0.0911,0.0917,0.0641,0.063,0.0621,0,0,0,0,0,-0.0099,-0.0111,-0.0099,-0.0095,-0.0048,-0.0018,-0.0008,0.0046,0.0068,0.0078,0.018,0.0257,0.0544,0.0491,0.0526,0.0532,0.0902,0.0909,0.0916,0.0646,0.0633,0.0622,0,0,0,0,0,0,-0.0125,-0.0101,-0.0087,-0.0089,-0.0059,-0.0003,0.0005,0.0038,0.012,0.0136,0.0265,0.0303,0.0404,0.0533,0.0472,0.068,0.0751,0.0765,0.0533,0.0523,0.0513,0.0462,0.0568,0,0,0,0,0,-0.014,-0.0147,-0.011,-0.0113,-0.0103,-0.0053,-0.0035,-0.0,0.0072,0.0107,0.0211,0.0352,0.0462,0.0537,0.0659,0.0755,0.084,0.0807,0.0797,0.0786,0.0781,0.0882,0.0876,0.0944,0.0944,0.0944,0,0,-0.0152,-0.0142,-0.0144,-0.012,-0.0094,-0.0088,-0.0037,-0.0016,-0.0002,0.0135,0.0201,0.0306,0.0481,0.0575,0.064,0.0679,0.0813,0.0796,0.0783,0.0785,0.0888,0.088,0.0873,0.0949,0.0948,0.0947,0,0,-0.0182,-0.0172,-0.0185,-0.0169,-0.0142,-0.0114,-0.0114,-0.0057,-0.0021,0.0044,0.0147,0.023,0.0429,0.0515,0.0593,0.0619,0.0743,0.0708,0.0616,0.071,0.0702,0.0697,0.0757,0.0759,0.0715,0.0715,0.0714,0,-0.02,-0.0208,-0.0183,-0.0189,-0.0183,-0.0134,-0.0141,-0.0106,-0.0016,0.0016,0.0052,0.0283,0.0387,0.0493,0.0491,0.0579,0.0665,0.0611,0.0682,0.0679,0.0678,0.0743,0.0748,0.0702,0.0703,0.0705,0.0706,0,-0.0234,-0.024,-0.0248,-0.0246,-0.0236,-0.0234,-0.0194,-0.0165,-0.0122,-0.0076,0.0026,0.0149,0.0293,0.034,0.0408,0.0478,0.0547,0.0624,0.0668,0.0651,0.0724,0.0734,0.0684,0.0688,0.0692,0.0695,0,0,-0.0293,-0.0274,-0.0284,-0.0284,-0.0266,-0.0261,-0.0249,-0.0216,-0.0204,-0.0117,-0.0075,0.0048,0.0111,0.0208,0.0313,0.0377,0.0384,0.0484,0.0495,0.0466,0.0585,0.0632,0.0649,0.0475,0.0477,0.0478,0.0621,0,-0.0331,-0.0352,-0.0336,-0.0358,-0.0362,-0.0324,-0.0322,-0.0286,-0.0235,-0.0179,-0.0072,0.0013,0.007,0.0125,0.0189,0.0373,0.041,0.0338,0.068,0.0689,0.0667,0.0662,0.0554,0.0675,0.0632,0.0634,0.0635,0,-0.0386,-0.0386,-0.0408,-0.0405,-0.0407,-0.0413,-0.0399,-0.0387,-0.0312,-0.0269,-0.0183,-0.008,0.003,0.0075,0.031,0.0276,0.039,0.0502,0.0513,0.0665,0.0757,0.0709,0.0697,0.0654,0.0653,0.0652,0.065,0,-0.0451,-0.0451,-0.0467,-0.0465,-0.0448,-0.0451,-0.045,-0.041,-0.04,-0.0318,-0.0281,-0.0131,-0.0038,0.0139,0.0338,0.0349,0.0591,0.0652,0.0784,0.0789,0.0821,0.0826,0.0767,0.0767,0.0767,0.0766,0.0766,0,-0.0511,-0.0527,-0.0491,-0.0505,-0.0523,-0.0502,-0.0523,-0.0501,-0.046,-0.0447,-0.0326,-0.0269,-0.0017,0.0153,0.0331,0.0591,0.0593,0.076,0.0834,0.0723,0.0719,0.0822,0.0826,0.0772,0.077,0.0769,0.0768,0,-0.0582,-0.0559,-0.0571,-0.0556,-0.0553,-0.057,-0.058,-0.0592,-0.0547,-0.0516,-0.049,-0.0341,-0.0139,0.0097,0.0387,0.0586,0.0824,0.089,0.072,0.0772,0.0958,0.0947,0.1096,0.1099,0.1101,0.1103,0.1105,0,-0.0609,-0.0622,-0.0621,-0.0628,-0.0619,-0.0636,-0.0657,-0.064,-0.0645,-0.0562,-0.0541,-0.0374,-0.0276,0.0163,0.0519,0.0848,0.082,0.0959,0.0956,0.0936,0.0994,0.098,0.0966,0.0874,0.0874,0.0874,0.0874,0,-0.0658,-0.0662,-0.0679,-0.07,-0.0714,-0.0738,-0.0755,-0.077,-0.0741,-0.0699,-0.0633,-0.0558,-0.0185,0.0142,0.057,0.0747,0.0916,0.097,0.1015,0.0812,0.0742,0.0793,0.0785,0.0872,0.0872,0.0872,0.0872,0.0872,-0.0693,-0.0724,-0.0752,-0.0774,-0.0798,-0.0833,-0.0855,-0.0859,-0.0862,-0.0788,-0.0717,-0.049,-0.02,0.045,0.0635,0.0899,0.0967,0.1037,0.1032,0.1028,0.0981,0.092,0.1073,0.1074,0.1075,0.1076,0.1077,0,-0.0723,-0.0773,-0.0817,-0.0858,-0.0915,-0.0895,-0.0915,-0.0923,-0.092,-0.0773,-0.0703,-0.0299,0.0027,0.0342,0.0774,0.0997,0.0932,0.0962,0.0827,0.083,0.0832,0.0769,0.0807,0.0807,0.0807,0.0806,0,0,-0.0742,-0.0804,-0.0842,-0.0944,-0.0981,-0.1029,-0.1032,-0.1002,-0.0881,-0.0758,-0.0486,-0.022,0.0187,0.0443,0.0578,0.0713,0.0706,0.0689,0.0887,0.0704,0.0703,0.0863,0.0768,0,0,0,0,0]}],[{"header":{"parameterUnit":"m.s-1","parameterCategory":2,"la1":30.2991,"la2":30.254,"lo1":-89.0895,"lo2":-89.0444,"dy":0.0017,"dx":0.0017,"nx":28,"ny":28,"refTime":"2023-07-30T03:00:00:Z","depth":"4","parameterNumber":2,"parameterNumberName":"U-component_of_CURRENTS"},"data":[0,0,0,0,0,0,0,0,0,0,0,0,0,0,0,0,0,0,0,0,0,0,0,0,0,0,0,0,0,0,0,0,0,0,0,0,0,0,0,0,0,0,0,0,0,0,0,0,0,0,0,0,0,0,0,0,0,0,-0.1646,-0.1646,0,-0.1692,-0.1693,-0.1693,-0.171,-0.171,-0.171,-0.171,-0.1774,-0.1776,-0.1778,0,0,0,0,0,0,0,0,0,0,0,0,0,-0.1566,-0.1568,-0.1646,-0.1646,-0.1647,-0.1692,-0.1693,-0.1693,-0.171,-0.171,-0.171,-0.171,-0.1774,-0.1776,-0.1778,0,0,0,0,0,0,0,0,0,0,0,0,0,-0.1604,-0.1568,-0.1645,-0.1662,-0.1664,-0.1692,-0.1693,-0.1693,-0.171,-0.171,-0.171,-0.171,-0.1773,-0.1776,-0.1778,-0.1794,0,0,-0.1786,-0.1787,0,0,0,0,0,0,0,0,-0.1602,-0.1607,-0.1659,-0.1661,-0.1664,-0.1697,-0.1689,-0.1729,-0.171,-0.1691,-0.171,-0.171,-0.1751,-0.1756,-0.1762,-0.1797,-0.18,-0.1786,-0.1788,-0.1789,-0.179,0,0,0,0,0,0,0,-0.1599,-0.1605,-0.1662,-0.166,-0.1663,-0.1666,-0.1671,-0.1696,-0.172,-0.1693,-0.1694,-0.1702,-0.1752,-0.1759,-0.1764,-0.1801,-0.1786,-0.1789,-0.179,-0.1791,-0.1891,-0.1892,0,0,0,0,0,0,-0.1597,-0.1603,-0.1661,-0.1664,-0.1634,-0.1668,-0.1673,-0.1685,-0.1719,-0.1725,-0.1702,-0.1703,-0.1755,-0.1761,-0.1766,-0.1838,-0.1789,-0.1791,-0.1793,-0.189,-0.1892,-0.1893,0,0,0,0,0,0,-0.1596,-0.1602,-0.1659,-0.1635,-0.1643,-0.1669,-0.1682,-0.1686,-0.1714,-0.1727,-0.1732,-0.1729,-0.1755,-0.1762,-0.1807,-0.1839,-0.1793,-0.1795,-0.1889,-0.1891,-0.1892,-0.1949,0,0,0,0,0,0,-0.1593,-0.1601,-0.1623,-0.1635,-0.1644,-0.1689,-0.1682,-0.1687,-0.1718,-0.172,-0.1751,-0.1755,-0.1756,-0.1804,-0.181,-0.1841,-0.1797,-0.1887,-0.189,-0.1892,-0.1946,-0.1953,-0.1959,0,0,0,0,0,-0.159,-0.1617,-0.1624,-0.1632,-0.1669,-0.169,-0.1695,-0.1712,-0.172,-0.1736,-0.1759,-0.1755,-0.1821,-0.1807,-0.1814,-0.1847,-0.1886,-0.1889,-0.1891,-0.1943,-0.1951,-0.1958,0,0,0,0,0,0,-0.1593,-0.1621,-0.1629,-0.1664,-0.1682,-0.1694,-0.1719,-0.1727,-0.1758,-0.1768,-0.1776,-0.1783,-0.1827,-0.1832,-0.1816,-0.188,-0.1851,-0.1855,-0.1888,-0.1896,-0.1902,-0.1899,-0.1799,0,0,0,0,0,-0.1604,-0.1633,-0.1651,-0.168,-0.1694,-0.1711,-0.1728,-0.1737,-0.176,-0.1774,-0.1796,-0.1819,-0.184,-0.1864,-0.1878,-0.1926,-0.1904,-0.1948,-0.1954,-0.196,-0.1962,-0.1956,-0.1962,-0.1901,-0.1901,-0.1901,0,0,-0.1613,-0.1633,-0.1651,-0.1684,-0.1702,-0.1726,-0.1722,-0.1754,-0.1781,-0.1777,-0.1833,-0.1841,-0.1854,-0.1897,-0.1919,-0.1911,-0.1965,-0.1963,-0.1968,-0.1966,-0.1959,-0.1965,-0.197,-0.1903,-0.1902,-0.1902,0,0,-0.1633,-0.1666,-0.1691,-0.1711,-0.1743,-0.1756,-0.177,-0.1796,-0.182,-0.1864,-0.1866,-0.1895,-0.1937,-0.1951,-0.1963,-0.2015,-0.199,-0.2023,-0.2068,-0.2063,-0.2067,-0.2071,-0.2045,-0.2046,-0.2037,-0.2037,-0.2037,0,-0.1643,-0.1677,-0.1701,-0.1726,-0.1751,-0.1772,-0.1799,-0.1828,-0.1867,-0.1891,-0.1889,-0.1944,-0.1959,-0.2006,-0.2025,-0.203,-0.2014,-0.204,-0.207,-0.2074,-0.2077,-0.2049,-0.2049,-0.204,-0.204,-0.204,-0.2039,0,-0.1669,-0.1706,-0.1726,-0.1767,-0.1795,-0.1826,-0.1861,-0.1899,-0.1928,-0.1948,-0.2001,-0.2016,-0.2044,-0.206,-0.2064,-0.2103,-0.208,-0.207,-0.205,-0.2086,-0.2054,-0.2054,-0.2045,-0.2044,-0.2043,-0.2042,0,0,-0.1658,-0.173,-0.1737,-0.1764,-0.1821,-0.1841,-0.1903,-0.1953,-0.1991,-0.2029,-0.207,-0.2115,-0.2117,-0.2129,-0.2138,-0.2149,-0.2159,-0.213,-0.2129,-0.2101,-0.2134,-0.199,-0.1975,-0.2157,-0.2158,-0.2158,-0.2101,0,-0.167,-0.1722,-0.1759,-0.1815,-0.1845,-0.1893,-0.1945,-0.1995,-0.2038,-0.2083,-0.211,-0.2142,-0.2147,-0.2159,-0.2176,-0.216,-0.2162,-0.2174,-0.2106,-0.2103,-0.1968,-0.1971,-0.216,-0.21,-0.21,-0.21,-0.21,0,-0.1672,-0.1713,-0.177,-0.1842,-0.1861,-0.19,-0.1981,-0.2025,-0.2095,-0.2124,-0.2165,-0.2179,-0.2212,-0.2198,-0.2195,-0.2204,-0.2176,-0.2159,-0.2156,-0.2,-0.1957,-0.2058,-0.2098,-0.2098,-0.2098,-0.2098,-0.2098,0,-0.1633,-0.1714,-0.1763,-0.1789,-0.1876,-0.1917,-0.196,-0.2038,-0.2073,-0.214,-0.2144,-0.2205,-0.2193,-0.2201,-0.2181,-0.2187,-0.2156,-0.2151,-0.1992,-0.1981,-0.2105,-0.2101,-0.2134,-0.2135,-0.2135,-0.2135,-0.2135,0,-0.1612,-0.1654,-0.1753,-0.1775,-0.184,-0.1901,-0.1963,-0.2014,-0.2074,-0.2072,-0.2149,-0.2123,-0.2191,-0.2183,-0.2183,-0.2075,-0.2151,-0.1987,-0.1954,-0.2129,-0.2129,-0.2103,-0.21,-0.2133,-0.2133,-0.2134,-0.2134,0,-0.155,-0.162,-0.168,-0.1783,-0.1821,-0.1858,-0.1945,-0.1969,-0.2028,-0.2018,-0.2026,-0.206,-0.2022,-0.2082,-0.2073,-0.2021,-0.1977,-0.1923,-0.2099,-0.208,-0.1804,-0.1806,-0.1721,-0.1715,-0.171,-0.1706,-0.1703,0,-0.1516,-0.1545,-0.1668,-0.1701,-0.175,-0.182,-0.1854,-0.1939,-0.1935,-0.1933,-0.1889,-0.1887,-0.1893,-0.1762,-0.1854,-0.1848,-0.1832,-0.18,-0.181,-0.1784,-0.1762,-0.177,-0.1778,-0.1695,-0.1694,-0.1693,-0.1692,0,-0.1448,-0.1507,-0.1553,-0.1622,-0.1671,-0.1714,-0.175,-0.1735,-0.177,-0.1841,-0.1688,-0.1654,-0.1602,-0.162,-0.1639,-0.1637,-0.1825,-0.175,-0.176,-0.1768,-0.1752,-0.1737,-0.175,-0.1675,-0.1677,-0.1679,-0.168,0,-0.1391,-0.1409,-0.147,-0.1512,-0.1572,-0.1553,-0.1605,-0.1556,-0.1561,-0.1552,-0.149,-0.1486,-0.1536,-0.1504,-0.1518,-0.1518,-0.1492,-0.1451,-0.1476,-0.1495,-0.1457,-0.1406,-0.1179,0,0,0,0,0,-0.1319,-0.1318,-0.135,-0.1375,-0.1421,-0.1446,-0.1499,-0.154,-0.1571,-0.141,-0.1443,-0.1379,-0.1328,-0.1353,-0.131,-0.1459,-0.1541,-0.1406,-0.1518,-0.1583,-0.1602,-0.1585,0,0,0,0,0,0,-0.1269,-0.1299,-0.1303,-0.1235,-0.1223,-0.1245,-0.127,-0.1301,-0.1226,-0.1265,-0.1256,-0.1284,-0.1292,-0.1325,-0.1272,-0.1288,-0.1328,-0.1438,-0.1434,-0.1573,-0.159,-0.1605,-0.1594,0,0,0,0,0]},{"header":{"parameterUnit":"m.s-1","parameterCategory":2,"la1":30.2991,"la2":30.254,"lo1":-89.0895,"lo2":-89.0444,"dy":0.0017,"dx":0.0017,"nx":28,"ny":28,"refTime":"2023-07-30T03:00:00:Z","depth":"4","parameterNumber":3,"parameterNumberName":"V-component_of_CURRENTS"},"data":[0,0,0,0,0,0,0,0,0,0,0,0,0,0,0,0,0,0,0,0,0,0,0,0,0,0,0,0,0,0,0,0,0,0,0,0,0,0,0,0,0,0,0,0,0,0,0,0,0,0,0,0,0,0,0,0,0,0,-0.0076,-0.0076,0,-0.0039,-0.0039,-0.0038,0.0005,0.0005,0.0006,0.0007,0.0073,0.0074,0.0075,0,0,0,0,0,0,0,0,0,0,0,0,0,-0.0092,-0.0092,-0.0076,-0.0076,-0.0075,-0.0039,-0.0039,-0.0038,0.0005,0.0005,0.0006,0.0007,0.0073,0.0074,0.0076,0,0,0,0,0,0,0,0,0,0,0,0,0,-0.0072,-0.0092,-0.0076,-0.005,-0.0047,-0.004,-0.0039,-0.0038,0.0005,0.0005,0.0006,0.0007,0.0072,0.0074,0.0076,0.0069,0,0,0.0081,0.0082,0,0,0,0,0,0,0,0,-0.0074,-0.0072,-0.0054,-0.0052,-0.0049,-0.0021,-0.002,-0.0001,0.0004,-0.0015,0.0007,0.0008,0.0043,0.0047,0.0053,0.0072,0.0075,0.0081,0.0083,0.0083,0.0084,0,0,0,0,0,0,0,-0.0075,-0.0073,-0.0061,-0.0054,-0.0051,-0.0034,-0.003,-0.0016,0.001,-0.0013,-0.001,-0.0007,0.0045,0.0051,0.0055,0.0076,0.0081,0.0083,0.0084,0.0085,0.0097,0.0096,0,0,0,0,0,0,-0.0083,-0.0075,-0.0062,-0.006,-0.006,-0.0035,-0.0031,-0.0031,0.0009,0.0016,-0.0008,-0.0005,0.0047,0.0053,0.0057,0.0076,0.0083,0.0085,0.0086,0.0098,0.0097,0.0096,0,0,0,0,0,0,-0.0083,-0.0082,-0.0064,-0.0067,-0.0063,-0.0036,-0.0036,-0.003,-0.0023,0.0013,0.002,-0.0006,0.0048,0.0055,0.0068,0.0078,0.0086,0.0087,0.0099,0.0098,0.0096,0.0098,0,0,0,0,0,0,-0.0084,-0.0083,-0.0088,-0.0067,-0.0063,-0.0066,-0.0037,-0.003,-0.0023,-0.0019,0.0016,0.0023,0.0049,0.0065,0.007,0.0081,0.0089,0.01,0.0098,0.0097,0.0099,0.0097,0.0096,0,0,0,0,0,-0.0085,-0.0096,-0.0088,-0.0087,-0.007,-0.0067,-0.0063,-0.004,-0.0024,-0.0029,-0.0002,0.0022,0.0059,0.0066,0.0072,0.0084,0.01,0.0099,0.0097,0.01,0.0098,0.0096,0,0,0,0,0,0,-0.0102,-0.0092,-0.0083,-0.009,-0.0082,-0.006,-0.0061,-0.0046,-0.0029,-0.0023,0.0014,0.0022,0.0033,0.0049,0.0055,0.0078,0.0083,0.0082,0.0083,0.0081,0.0079,0.0083,0.009,0,0,0,0,0,-0.0111,-0.0119,-0.0103,-0.011,-0.0108,-0.0086,-0.0082,-0.0068,-0.005,-0.0041,-0.0016,0.0008,0.0028,0.0048,0.0057,0.0075,0.0122,0.0083,0.0081,0.008,0.0084,0.0179,0.0188,0.009,0.009,0.009,0,0,-0.012,-0.0116,-0.012,-0.0116,-0.0106,-0.0108,-0.0081,-0.0081,-0.0075,-0.0037,-0.0025,-0.0005,0.0026,0.0044,0.0052,0.0065,0.0127,0.0078,0.0077,0.0081,0.0178,0.0189,0.0198,0.0089,0.0089,0.009,0,0,-0.0143,-0.0139,-0.0152,-0.0149,-0.0142,-0.013,-0.0133,-0.0115,-0.0098,-0.0091,-0.0058,-0.0024,-0.001,0.0036,0.0057,0.005,0.0104,0.004,0.0054,0.0147,0.0157,0.0166,0.0225,0.024,0.0054,0.0054,0.0054,0,-0.0154,-0.0166,-0.0155,-0.0165,-0.0165,-0.0142,-0.0153,-0.0136,-0.0115,-0.0099,-0.0093,-0.0035,-0.0006,0.0051,0.005,0.0052,0.0097,0.0066,0.015,0.016,0.017,0.0228,0.0244,0.0054,0.0054,0.0054,0.0054,0,-0.0183,-0.0192,-0.02,-0.0204,-0.0205,-0.0213,-0.019,-0.0182,-0.0164,-0.0139,-0.0097,-0.0045,-0.0004,0.0013,0.0032,0.0109,0.0114,0.013,0.0165,0.0181,0.0239,0.0256,0.0054,0.0054,0.0054,0.0054,0,0,-0.0218,-0.0219,-0.0226,-0.0231,-0.0227,-0.0232,-0.0222,-0.0202,-0.0192,-0.0148,-0.0115,-0.0053,-0.0017,0.0008,0.0053,0.0144,0.025,0.0164,0.0169,0.0238,0.0436,0.0337,0.0347,0.0289,0.0292,0.0294,0.0446,0,-0.0245,-0.027,-0.0263,-0.0287,-0.0297,-0.0274,-0.0272,-0.0249,-0.022,-0.0186,-0.0095,-0.0062,-0.0019,0.0004,0.0104,0.0208,0.0296,0.0206,0.0395,0.04,0.0326,0.0364,0.0304,0.0458,0.0463,0.0465,0.0467,0,-0.0285,-0.0293,-0.0318,-0.0326,-0.033,-0.034,-0.033,-0.0324,-0.0263,-0.0237,-0.0161,-0.0107,0.0023,0.0048,0.0277,0.0217,0.0319,0.0409,0.0418,0.0339,0.0334,0.0441,0.0499,0.0497,0.0494,0.0492,0.049,0,-0.0326,-0.0339,-0.0359,-0.0362,-0.0363,-0.0368,-0.0373,-0.034,-0.0337,-0.0265,-0.0254,-0.0097,-0.0033,0.0148,0.0305,0.0308,0.0542,0.0575,0.0586,0.058,0.0626,0.0614,0.0736,0.0736,0.0735,0.0735,0.0735,0,-0.0364,-0.0385,-0.0379,-0.0394,-0.0422,-0.0411,-0.0434,-0.0416,-0.0387,-0.0386,-0.0284,-0.0242,-0.0004,0.0138,0.0308,0.0481,0.0551,0.0594,0.0621,0.0616,0.0602,0.0637,0.0624,0.0741,0.0739,0.0738,0.0737,0,-0.0409,-0.0404,-0.0432,-0.0438,-0.0444,-0.0468,-0.0493,-0.0506,-0.0479,-0.0468,-0.045,-0.0323,-0.0134,0.0076,0.0358,0.0452,0.0646,0.068,0.0629,0.0648,0.0631,0.0616,0.0753,0.0751,0.075,0.0748,0.0747,0,-0.0429,-0.0447,-0.0474,-0.0496,-0.0501,-0.0532,-0.056,-0.0551,-0.0559,-0.0521,-0.0511,-0.0365,-0.0259,0.0073,0.0286,0.059,0.0613,0.0691,0.07,0.0625,0.0638,0.0625,0.0612,0.0744,0.0744,0.0743,0.0743,0,-0.0467,-0.0482,-0.0507,-0.0554,-0.0586,-0.0623,-0.0653,-0.0663,-0.0651,-0.0629,-0.0543,-0.0397,-0.0212,0.0054,0.0248,0.0469,0.0643,0.0675,0.0682,0.0691,0.0616,0.0627,0.0617,0.0737,0.0738,0.0738,0.0739,0,-0.0496,-0.053,-0.057,-0.0609,-0.0659,-0.0699,-0.0704,-0.0693,-0.069,-0.0628,-0.0599,-0.0405,-0.0274,-0.0013,0.0183,0.0368,0.0437,0.0492,0.051,0.0519,0.0385,0.0251,0.0294,0,0,0,0,0,-0.0515,-0.0567,-0.062,-0.0671,-0.0726,-0.075,-0.0763,-0.0755,-0.0733,-0.0676,-0.0632,-0.0457,-0.019,-0.0068,0.0112,0.0153,0.0455,0.0361,0.0525,0.0704,0.0711,0.0582,0,0,0,0,0,0,-0.0533,-0.0594,-0.0631,-0.0715,-0.0763,-0.082,-0.0828,-0.0807,-0.0749,-0.0699,-0.053,-0.046,-0.0166,-0.0289,0.0099,0.0151,0.0266,0.0498,0.05,0.07,0.0706,0.0712,0.0582,0,0,0,0,0]}]]